GW3608 Weather Reports


time (UTC)temp
C
wind
direction
speed
KPH
gust
KPH
rain 1hr
cm
rain 24hr
cm
rain mn
cm
humidity
%
barometer
mb
20260504081514 6 146 0.0 1.6 0.00 0.00 0.00 62 1010.9
20260504044526 5 9 0.0 0.0 0.00 0.00 0.00 73 1011.0
20260504043017 5 9 0.0 0.0 0.00 0.00 0.00 70 1011.0
20260504041522 6 9 0.0 0.0 0.00 0.00 0.00 67 1011.1
20260504040039 7 9 0.0 0.0 0.00 0.00 0.00 65 1011.0
20260504034525 7 9 0.0 0.0 0.00 0.00 0.00 67 1011.1
20260504033026 7 9 0.0 0.0 0.00 0.00 0.00 66 1011.1
20260504031523 8 9 0.0 0.0 0.00 0.00 0.00 60 1011.1
20260504030025 7 9 0.0 1.6 0.00 0.00 0.00 64 1011.2
20260504024526 8 9 0.0 0.0 0.00 0.00 0.00 66 1011.2
20260504023030 8 35 0.0 0.0 0.00 0.00 0.00 58 1011.3
20260504021528 8 35 0.0 0.0 0.00 0.00 0.00 57 1011.4
20260504020026 8 35 0.0 0.0 0.00 0.00 0.00 58 1011.4
20260504014527 8 5 0.0 0.0 0.00 0.00 0.00 55 1011.3
20260504013009 9 5 0.0 1.6 0.00 0.00 0.00 51 1011.1
20260504011513 9 341 0.0 1.6 0.00 0.00 0.00 49 1011.2
20260504010020 10 24 0.0 3.2 0.00 0.00 0.00 48 1011.1
20260504004533 10 269 0.0 3.2 0.00 0.00 0.00 47 1011.0
20260504003026 11 275 0.0 6.4 0.00 0.00 0.00 45 1010.8
20260504001514 10 247 0.0 3.2 0.00 0.00 0.00 47 1010.6
20260504000015 10 240 0.0 1.6 0.00 0.00 0.00 47 1010.4
20260503234523 10 242 0.0 4.8 0.00 0.00 0.00 46 1010.3
20260503233023 11 234 0.0 3.2 0.00 0.00 0.00 46 1010.2
20260503231526 10 170 0.0 0.0 0.00 0.00 0.00 48 1010.2
20260503230016 11 221 0.0 1.6 0.00 0.00 0.00 47 1010.2
20260503224517 11 235 0.0 4.8 0.00 0.00 0.00 46 1010.3
20260503223026 11 250 0.0 4.8 0.00 0.00 0.00 46 1010.4
20260503221510 11 267 1.6 8.0 0.00 0.00 0.00 44 1010.3
20260503220013 11 310 1.6 8.0 0.00 0.00 0.00 44 1010.5
20260503214518 10 298 0.0 4.8 0.00 0.00 0.00 47 1010.6
20260503213021 10 252 1.6 4.8 0.00 0.00 0.00 48 1010.7
20260503211523 11 55 1.6 14.5 0.00 0.00 0.00 46 1010.6
20260503210008 10 46 3.2 16.1 0.00 0.00 0.00 49 1010.7
20260503204520 11 241 4.8 16.1 0.00 0.00 0.00 45 1010.6
20260503203020 11 219 4.8 14.5 0.00 0.00 0.00 43 1010.5
20260503201521 11 294 1.6 16.1 0.00 0.00 0.00 45 1010.4
20260503200027 11 268 4.8 16.1 0.00 0.00 0.00 40 1010.5
20260503194510 11 13 3.2 12.9 0.00 0.00 0.00 40 1010.7
20260503193035 11 247 1.6 12.9 0.00 0.00 0.00 38 1010.8
20260503191522 12 338 1.6 11.3 0.00 0.00 0.00 41 1010.9
20260503190023 11 273 1.6 14.5 0.00 0.00 0.00 39 1011.1
20260503184527 11 29 3.2 14.5 0.00 0.00 0.00 38 1011.1
20260503183013 11 333 6.4 20.9 0.00 0.00 0.00 37 1011.5
20260503181518 11 309 3.2 14.5 0.00 0.00 0.00 41 1011.5
20260503180026 11 334 4.8 22.5 0.00 0.00 0.00 42 1011.6
20260503174531 10 276 9.7 25.7 0.00 0.00 0.00 40 1012.0
20260503173027 10 5 6.4 19.3 0.00 0.00 0.00 42 1012.3
20260503171522 9 36 3.2 16.1 0.00 0.00 0.00 41 1012.2